Temp
13 13 14 14 15 15 15 16 12 15 16 14 8 9 14 14 13 15 14 13 13 13 12 12 12 13 12 13 13 12 10 7 7 11 11 11 11 11 9 5 8 5 4 8
12 13 13 14 15 16 16 16 15 16 17 7 3 12 12 13 14 12 13 13 12 12 11 11 12 12 12 13 12 12 11 7 6 9 10 10 11 10 9 5 4 7 5 8
12 12 13 14 15 16 16 16 8 16 16 12 10 11 12 13 14 13 12 12 13 11 10 9 11 11 12 12 12 12 11 7 8 7 9 8 8 9 9 8 7 8 7 9
12 12 13 14 15 15 16 15 11 12 6 9 11 11 13 13 13 13 13 12 11 11 9 10 10 10 10 11 11 10 8 8 8 7 8 7 8 8 7 6 7 7 9 7
12 12 13 13 14 15 15 15 13 12 10 11 11 7 12 12 12 13 12 11 11 11 10 11 11 10 10 10 10 9 6 5 7 6 6 6 5 6 6 6 6 6 7 6
11 12 13 13 14 14 14 14 14 15 6 7 6 7 12 12 12 12 13 12 10 9 11 12 12 12 12 10 10 7 7 3 3 4 4 4 6 8 7 8 7 7 7 9
10 11 12 13 13 14 14 15 15 15 4 3 6 11 12 11 12 11 12 12 9 12 12 12 11 10 8 8 7 8 2 1 2 3 6 6 9 9 9 8 7 7 6 6
10 11 11 12 13 13 14 14 15 15 2 5 10 11 11 11 12 11 12 12 12 12 12 4 3 3 4 4 4 4 4 2 4 6 6 6 8 9 10 8 7 8 7 7
9 10 10 11 12 12 13 13 14 14 12 6 12 11 11 5 6 8 10 10 11 11 5 2 2 4 4 7 7 3 2 -0 2 3 5 6 7 8 9 8 5 7 8 8
9 9 9 10 11 12 12 13 13 13 14 12 12 11 8 11 9 5 8 9 9 9 0 2 1 3 4 5 3 2 1 2 5 6 5 4 5 7 8 6 7 8 8 7
8 9 9 9 10 11 11 12 12 13 13 12 12 12 12 11 10 4 8 7 6 2 3 2 2 -2 2 3 5 4 5 2 1 2 3 4 7 8 7 8 9 7 7 6
7 8 8 9 9 10 11 11 11 12 12 12 11 11 11 11 12 12 10 9 9 8 2 2 -0 0 1 2 5 5 5 5 5 6 4 7 8 7 9 8 6 5 5 3
7 7 7 8 8 9 10 10 10 11 11 11 11 11 11 11 11 10 11 9 10 10 9 5 0 2 0 5 4 2 6 7 4 6 7 7 8 8 6 5 4 3 2 1
6 7 7 7 8 8 9 9 10 10 10 9 10 10 10 10 10 10 10 10 9 9 8 7 1 3 5 3 5 5 5 6 5 5 7 7 7 6 5 4 3 3 1 2
6 6 7 7 7 7 8 8 8 9 10 6 9 9 10 10 9 9 9 9 8 8 6 4 3 4 3 3 2 3 7 5 4 6 7 5 5 5 4 3 2 1 2 2
6 6 6 6 6 7 7 7 8 8 8 8 3 8 8 9 9 8 8 8 7 6 7 6 6 8 6 3 5 8 8 8 8 6 6 6 5 3 2 1 2 2 2 2
6 6 6 6 6 6 6 7 8 8 7 7 4 5 5 6 6 7 7 7 7 6 6 5 7 7 6 2 6 7 8 7 7 6 5 4 2 1 1 0 1 2 2 2
5 6 6 6 6 6 6 6 7 7 6 6 2 3 5 5 6 5 5 5 4 5 5 4 4 4 4 3 5 6 6 6 5 4 4 3 1 1 1 1 1 1 1 1
5 5 6 6 5 5 5 6 6 6 6 5 3 3 4 4 4 4 4 4 2 3 2 2 3 1 4 4 3 4 5 4 3 2 2 1 1 0 1 1 1 1 1 0
5 5 5 4 4 4 5 4 4 5 4 3 2 3 2 4 4 2 3 2 1 2 1 1 1 2 3 3 2 3 4 4 2 1 1 1 1 2 2 1 1 0 0 -0
3 4 3 3 3 3 3 3 2 2 2 1 1 2 2 2 2 1 1 1 -0 -1 -2 1 0 -0 2 2 2 2 2 2 2 2 2 2 1 1 1 0 0 -0 -1 -1
3 4 2 2 2 2 2 1 -0 0 1 -0 0 1 1 1 2 1 -1 -0 -1 0 -2 -1 -2 -2 1 2 2 2 2 2 1 1 1 1 1 0 -0 -0 -1 -1 -1 -1
3 4 2 2 1 1 2 1 1 0 -0 -0 0 -0 1 0 1 -1 -1 -2 -2 -2 -3 -2 -3 1 1 2 2 2 2 1 1 1 1 0 -0 -1 -1 -1 -1 -2 -2 -2
3 2 1 -0 -0 -0 -0 -0 -3 0 -0 -0 1 -1 -1 -1 -2 -2 -3 -4 -5 -1 -3 -4 -4 1 1 1 1 1 0 0 -0 -0 -1 -1 -1 -1 -1 -1 -2 -2 -2 -2
2 1 -1 -1 -2 -1 -1 -0 -0 0 0 0 -1 -2 -1 -4 -4 -4 -6 -3 -2 -2 -4 -7 1 1 1 0 -0 -0 -0 -1 -1 -1 -1 -1 -1 -2 -2 -2 -2 -3 -3 -3
1 -1 -5 -2 -1 -2 -1 -1 -0 -0 -0 -1 -0 -5 -5 -5 -7 -6 -4 -5 -5 -5 -6 1 1 0 -0 -0 -1 -1 -1 -1 -1 -1 -2 -2 -2 -2 -2 -2 -3 -3 -4 -4
-1 -2 -3 -1 -1 -1 -0 0 -0 -0 -1 -2 -2 -6 -4 -6 -9 -7 -6 -7 -7 -0 1 0 -0 -1 -1 -1 -1 -1 -1 -1 -1 -2 -2 -2 -2 -2 -2 -3 -3 -4 -4 -4
Height
1518 1518 1518 1517 1517 1517 1519 1518 1521 1523 1523 1526 1533 1538 1536 1537 1539 1538 1541 1544 1548 1551 1555 1558 1558 1560 1560 1559 1559 1562 1563 1571 1576 1560 1557 1556 1558 1562 1567 1586 1582 1587 1593 1563
1519 1519 1519 1519 1518 1518 1519 1519 1521 1523 1522 1538 1544 1537 1538 1539 1540 1542 1544 1548 1549 1552 1557 1562 1559 1560 1562 1560 1560 1562 1562 1575 1585 1568 1563 1561 1560 1561 1564 1574 1581 1575 1590 1560
1519 1520 1520 1520 1519 1519 1520 1520 1526 1523 1523 1528 1532 1538 1541 1543 1543 1545 1546 1550 1550 1554 1560 1561 1563 1563 1562 1561 1560 1561 1561 1572 1575 1586 1572 1567 1566 1562 1563 1567 1573 1566 1562 1548
1519 1520 1520 1520 1520 1519 1520 1520 1525 1526 1535 1533 1533 1536 1540 1544 1546 1546 1548 1552 1553 1556 1565 1565 1566 1565 1564 1562 1562 1562 1564 1571 1571 1569 1566 1563 1559 1558 1559 1565 1560 1562 1546 1549
1519 1519 1519 1520 1520 1520 1521 1521 1524 1527 1532 1534 1535 1539 1542 1544 1546 1547 1550 1553 1555 1556 1561 1562 1565 1564 1565 1564 1563 1564 1566 1575 1570 1570 1566 1565 1562 1553 1553 1552 1551 1551 1546 1542
1517 1518 1519 1520 1521 1522 1522 1522 1524 1526 1536 1536 1540 1543 1541 1543 1544 1549 1549 1551 1555 1559 1558 1558 1560 1560 1560 1561 1563 1566 1568 1577 1581 1578 1572 1570 1561 1544 1546 1543 1542 1540 1541 1530
1517 1518 1519 1520 1521 1523 1524 1524 1526 1527 1541 1538 1540 1539 1540 1543 1544 1548 1551 1552 1554 1557 1557 1558 1558 1558 1559 1560 1561 1562 1572 1577 1582 1584 1571 1575 1542 1537 1536 1538 1535 1531 1531 1528
1516 1517 1519 1520 1522 1523 1524 1525 1527 1528 1539 1539 1539 1540 1542 1544 1546 1548 1550 1552 1553 1555 1556 1562 1569 1569 1566 1565 1563 1562 1562 1572 1576 1570 1566 1559 1541 1531 1531 1533 1534 1526 1527 1527
1514 1516 1519 1521 1522 1523 1524 1525 1527 1529 1531 1537 1537 1540 1542 1547 1548 1550 1551 1552 1553 1554 1557 1569 1585 1585 1576 1566 1562 1566 1568 1569 1576 1576 1570 1560 1536 1529 1530 1530 1537 1527 1527 1526
1513 1515 1518 1520 1521 1523 1524 1526 1528 1529 1531 1534 1536 1538 1541 1543 1545 1549 1550 1551 1553 1554 1564 1576 1585 1579 1572 1574 1578 1574 1574 1572 1564 1562 1565 1555 1529 1527 1528 1540 1534 1524 1524 1521
1511 1514 1516 1518 1520 1522 1524 1525 1527 1530 1531 1534 1535 1537 1538 1540 1543 1548 1549 1553 1553 1558 1566 1573 1574 1585 1571 1569 1561 1562 1562 1570 1573 1570 1567 1559 1526 1530 1535 1527 1520 1520 1517 1515
1509 1512 1515 1517 1519 1521 1523 1525 1527 1529 1532 1534 1534 1536 1538 1540 1542 1544 1546 1548 1548 1549 1559 1565 1569 1573 1571 1566 1561 1554 1559 1547 1547 1548 1543 1526 1526 1525 1526 1522 1519 1516 1514 1512
1507 1510 1513 1516 1518 1520 1522 1524 1526 1528 1531 1533 1533 1535 1537 1538 1541 1543 1545 1545 1547 1548 1548 1551 1557 1564 1559 1557 1554 1553 1543 1538 1541 1538 1526 1522 1519 1522 1523 1519 1518 1514 1513 1512
1504 1508 1511 1514 1516 1519 1521 1523 1525 1527 1530 1531 1531 1532 1534 1536 1537 1539 1541 1543 1544 1545 1546 1547 1551 1554 1548 1547 1544 1545 1539 1537 1532 1528 1521 1519 1519 1519 1518 1516 1514 1514 1513 1512
1501 1505 1508 1511 1515 1517 1520 1522 1524 1526 1531 1529 1529 1530 1532 1533 1534 1537 1538 1539 1541 1541 1543 1543 1546 1542 1543 1537 1537 1536 1530 1529 1530 1518 1518 1517 1516 1514 1514 1513 1511 1512 1512 1510
1498 1502 1505 1509 1512 1516 1519 1521 1522 1523 1525 1528 1530 1526 1525 1527 1528 1530 1533 1534 1536 1537 1536 1535 1533 1532 1534 1534 1527 1520 1519 1520 1517 1516 1515 1513 1512 1511 1512 1513 1514 1512 1511 1508
1494 1498 1502 1506 1509 1512 1516 1518 1517 1518 1522 1526 1526 1521 1520 1520 1521 1524 1527 1528 1529 1531 1532 1528 1528 1529 1529 1527 1521 1517 1515 1514 1514 1514 1512 1511 1512 1513 1514 1513 1513 1510 1508 1504
1489 1494 1499 1503 1505 1509 1511 1513 1515 1517 1521 1523 1524 1521 1521 1519 1518 1522 1523 1523 1524 1525 1524 1524 1523 1523 1523 1520 1513 1514 1513 1512 1511 1510 1509 1510 1512 1512 1512 1512 1509 1505 1501 1498
1485 1490 1494 1498 1500 1502 1504 1509 1512 1514 1519 1517 1517 1519 1519 1519 1519 1521 1522 1521 1523 1524 1522 1521 1522 1519 1519 1515 1513 1510 1508 1508 1508 1508 1510 1510 1510 1510 1509 1507 1504 1500 1496 1491
1478 1485 1489 1490 1493 1497 1503 1506 1507 1506 1508 1512 1512 1511 1515 1519 1518 1519 1521 1520 1524 1522 1522 1521 1519 1515 1514 1513 1511 1509 1508 1507 1509 1510 1511 1511 1509 1506 1503 1500 1497 1494 1489 1484
1477 1481 1485 1490 1494 1497 1500 1504 1507 1507 1507 1508 1509 1510 1511 1515 1517 1516 1517 1519 1522 1527 1525 1521 1520 1519 1514 1513 1512 1512 1512 1512 1511 1511 1509 1508 1506 1502 1498 1494 1492 1489 1484 1479
1480 1482 1487 1492 1494 1497 1501 1503 1505 1504 1505 1506 1508 1509 1509 1512 1514 1515 1518 1519 1523 1523 1524 1523 1523 1513 1513 1513 1513 1512 1511 1510 1509 1508 1507 1504 1502 1499 1495 1490 1486 1482 1477 1472
1482 1485 1489 1492 1497 1499 1498 1501 1501 1503 1501 1502 1504 1508 1510 1511 1513 1516 1518 1521 1524 1522 1524 1522 1514 1510 1511 1512 1511 1510 1509 1509 1508 1506 1503 1499 1496 1493 1489 1484 1480 1475 1469 1465
1482 1485 1491 1493 1496 1496 1493 1494 1497 1500 1500 1501 1503 1506 1508 1511 1514 1517 1521 1524 1524 1521 1527 1520 1511 1510 1510 1510 1510 1509 1507 1505 1503 1500 1496 1492 1489 1485 1481 1477 1473 1468 1462 1457
1483 1485 1490 1492 1494 1494 1495 1495 1498 1500 1501 1501 1503 1506 1509 1512 1517 1519 1524 1522 1521 1517 1517 1511 1508 1509 1509 1509 1508 1506 1502 1499 1496 1495 1492 1487 1483 1479 1474 1470 1465 1461 1456 1451
1484 1488 1492 1493 1494 1495 1496 1495 1499 1500 1500 1502 1504 1507 1511 1514 1517 1520 1518 1523 1521 1513 1506 1506 1507 1507 1507 1506 1503 1500 1496 1494 1492 1489 1485 1481 1477 1473 1468 1462 1458 1453 1449 1443
1485 1488 1489 1491 1492 1494 1495 1496 1498 1500 1501 1502 1503 1510 1509 1513 1520 1518 1513 1514 1504 1500 1503 1504 1505 1505 1503 1501 1497 1494 1491 1489 1487 1483 1479 1475 1472 1466 1461 1455 1450 1446 1442 1437
Wind_Speed
2 4 6 9 5 6 4 2 4 3 6 4 3 2 2 3 3 8 5 5 3 3 3 3 2 2 3 6 3 3 2 4 3 4 1 1 2 3 4 4 4 2 3 6
2 3 4 6 8 6 5 4 4 6 4 3 2 0 4 5 3 5 3 3 4 5 3 4 3 4 3 6 4 2 0 2 3 8 5 4 3 2 3 5 3 6 2 5
3 2 2 3 6 5 5 3 2 5 7 7 6 5 2 4 7 6 8 4 5 5 5 6 2 2 3 7 4 5 2 2 5 5 7 4 5 4 4 4 3 4 11 17
5 3 2 1 3 4 3 3 2 2 0 4 6 4 2 3 3 4 6 5 4 4 3 3 2 2 5 5 4 3 4 2 4 5 8 7 11 11 8 8 8 6 16 9
7 5 3 1 0 1 1 3 5 5 5 4 5 5 1 4 2 3 2 6 2 4 4 4 2 3 2 5 2 2 3 3 1 4 3 5 8 11 11 9 6 11 14 15
8 6 5 3 2 2 1 4 8 4 3 3 4 2 4 4 7 5 4 12 4 2 5 6 4 7 6 2 2 2 0 3 2 5 4 8 8 5 4 3 6 6 6 11
10 8 7 5 5 4 2 7 7 4 2 2 3 3 3 4 3 7 6 7 4 4 4 3 5 6 5 5 6 7 5 4 2 3 4 2 8 2 7 7 8 10 7 7
11 9 8 7 7 6 5 8 4 3 2 2 3 8 7 8 7 4 5 3 4 8 2 4 6 5 6 3 5 2 6 5 2 3 3 6 9 8 1 4 7 4 3 5
12 11 9 8 8 7 7 7 5 3 10 6 8 6 7 3 2 2 3 5 9 5 5 4 3 2 4 4 5 7 5 5 3 1 3 5 7 3 3 2 6 1 7 18
14 12 10 10 10 11 9 7 6 4 3 5 11 4 7 6 5 3 2 4 3 3 2 2 3 3 2 2 2 3 1 1 6 6 5 8 9 9 1 3 3 19 20 24
16 14 12 11 11 11 11 9 8 7 3 6 9 7 7 7 6 4 6 4 0 4 3 3 3 2 5 2 4 4 4 3 4 2 3 8 4 2 2 10 18 22 28 17
16 15 14 12 12 12 11 9 9 8 5 2 11 10 8 8 5 7 10 2 4 6 4 1 3 3 2 4 3 1 4 7 3 8 7 6 4 16 30 24 22 17 9 4
18 16 15 13 11 11 11 10 8 7 5 6 8 8 11 11 10 10 5 6 7 6 7 9 2 3 3 4 5 3 4 6 4 3 6 12 23 33 22 14 12 9 4 9
19 18 17 15 13 10 9 9 9 8 3 2 4 9 9 11 12 11 13 16 11 10 6 5 3 3 10 4 5 5 8 2 4 6 18 20 18 12 13 13 12 16 7 10
21 20 18 17 15 13 12 11 10 11 9 2 2 6 11 13 13 13 15 18 19 15 5 4 3 5 3 4 0 3 9 6 4 11 15 12 18 12 11 10 4 4 11 18
25 22 21 19 16 14 11 5 15 16 13 3 1 6 9 9 12 14 18 19 17 15 7 5 6 12 6 3 4 9 12 20 22 10 20 16 13 4 1 3 9 12 16 21
28 24 23 19 16 16 16 6 3 13 17 3 3 6 3 10 13 16 20 21 19 14 7 7 11 17 9 2 7 4 17 11 14 11 12 3 2 4 8 10 12 15 20 22
28 27 21 20 21 21 21 19 7 10 12 6 2 4 3 4 2 3 4 4 5 6 4 3 3 3 5 3 6 7 7 14 8 10 6 3 8 7 7 11 19 24 25 26
25 24 24 22 21 17 18 18 21 18 10 5 5 4 3 4 3 2 2 2 1 3 2 2 2 1 3 3 14 17 17 9 5 6 10 8 7 13 17 21 22 22 27 28
26 23 11 8 9 8 8 10 10 10 7 6 5 7 2 8 9 3 2 2 0 1 1 3 1 2 2 12 10 9 9 9 10 10 8 13 20 23 26 24 18 22 28 29
17 8 4 13 19 9 5 3 4 3 1 4 5 11 3 7 2 2 3 2 2 1 3 1 1 2 2 7 10 14 13 9 9 9 11 16 18 21 24 26 25 27 27 29
10 6 15 13 3 3 3 2 1 2 4 5 5 4 3 4 3 3 2 2 1 2 3 0 2 2 4 7 7 5 6 7 11 14 18 21 23 22 23 26 28 30 30 33
15 5 5 3 2 2 5 6 2 2 6 7 7 3 4 4 3 4 2 2 3 2 1 3 3 5 5 7 7 7 7 11 17 20 21 21 22 24 26 29 29 28 30 30
3 4 4 3 2 2 2 2 3 3 4 11 12 6 3 2 3 2 3 0 1 1 2 5 2 3 4 4 4 7 14 19 21 21 21 24 25 28 30 29 28 27 29 29
2 3 3 2 2 2 4 6 6 5 7 13 8 6 3 3 3 2 3 2 3 4 4 3 5 2 3 3 11 17 22 21 21 20 25 26 27 28 32 33 31 29 27 30
2 3 4 4 3 3 5 6 6 8 13 9 4 3 3 1 3 3 5 5 5 4 3 3 2 4 5 15 19 20 20 19 20 25 25 26 28 30 34 35 31 31 30 30
3 3 5 7 3 9 8 7 6 10 8 2 4 3 6 4 2 2 4 5 4 7 2 2 4 10 20 23 24 23 20 22 24 25 25 27 29 32 32 30 28 27 28 26
Wind_Direction
6 22 30 46 113 158 159 102 70 67 142 60 46 93 99 117 15 70 70 86 87 86 56 62 88 108 43 13 2 42 358 134 298 255 211 288 97 124 107 111 298 227 175 266
297 355 10 38 66 156 157 95 100 54 145 116 357 89 62 71 48 33 68 71 57 51 71 89 51 65 25 31 58 88 173 360 4 345 20 7 90 208 117 96 83 217 197 264
256 298 335 22 50 98 118 116 52 51 74 93 118 112 63 99 56 66 70 93 81 71 44 19 103 51 358 358 28 74 97 118 156 198 240 234 262 204 194 147 230 248 241 271
249 257 280 356 47 84 78 69 85 103 250 14 97 89 100 104 89 76 56 42 63 121 82 34 48 10 340 359 41 51 83 209 196 247 260 276 276 275 254 204 231 224 269 255
231 235 245 264 222 86 65 111 137 95 83 100 86 13 59 127 116 96 65 122 116 101 134 156 222 187 194 244 357 77 19 261 319 277 302 296 274 259 243 265 252 239 257 266
223 221 224 240 232 221 46 123 133 129 8 63 79 230 162 165 125 43 145 150 109 83 183 190 226 244 251 268 175 168 354 127 65 277 3 326 319 267 184 213 230 215 257 278
224 218 212 220 227 227 236 162 142 111 264 95 160 159 108 127 137 140 139 154 122 163 160 197 254 262 317 285 262 209 135 106 122 261 343 141 249 245 231 214 258 271 271 272
221 221 215 211 216 212 209 187 153 127 106 162 96 125 116 113 110 94 140 140 146 153 155 50 17 348 18 346 29 113 150 135 194 237 211 296 293 296 246 188 263 268 256 293
217 217 215 209 210 204 189 191 183 143 132 237 149 142 163 152 124 55 125 138 155 166 83 72 127 235 224 310 329 66 64 73 127 122 242 262 236 251 5 144 292 14 354 331
215 214 214 213 209 207 204 196 200 180 141 155 164 158 181 171 137 130 158 166 156 140 76 106 149 241 205 247 197 264 335 234 226 243 252 273 254 280 241 83 268 325 308 313
209 211 213 212 212 212 211 209 212 212 180 184 200 193 176 168 171 138 154 88 276 77 87 135 203 148 231 167 242 200 205 192 207 152 222 279 249 190 154 267 305 301 311 306
207 206 208 209 210 210 210 209 209 215 213 216 219 221 221 219 219 200 175 192 165 175 93 160 120 213 182 182 254 158 263 199 196 186 217 232 228 314 301 310 309 313 309 243
207 206 208 209 207 207 209 209 206 207 224 251 236 228 232 240 245 240 222 230 228 216 217 162 172 218 130 196 227 211 269 269 225 321 248 275 302 298 309 334 331 333 7 321
210 211 213 216 216 215 214 212 208 209 164 207 243 237 237 241 242 243 244 257 248 236 220 199 160 179 197 210 225 199 226 190 235 250 281 288 289 309 327 342 325 311 325 331
213 213 217 221 220 220 222 226 223 220 217 187 248 265 267 267 256 255 254 252 251 239 199 170 212 221 180 221 343 239 229 220 223 272 299 290 297 295 307 307 293 322 348 330
218 217 218 220 221 223 229 255 247 238 238 251 342 257 243 252 265 262 246 245 252 237 220 221 232 225 215 208 258 242 259 275 270 279 306 308 293 282 222 6 8 351 326 324
219 222 222 221 225 226 210 211 224 206 212 190 279 283 265 256 254 246 250 248 247 242 246 217 250 250 211 192 267 280 290 265 305 315 319 310 169 93 48 7 331 342 343 333
221 217 218 219 220 224 224 217 196 197 187 189 189 269 276 210 197 198 201 197 207 218 235 211 207 192 212 256 257 329 335 316 323 339 346 90 113 47 17 350 343 338 332 325
205 201 207 208 206 207 214 224 230 227 203 190 193 163 220 200 189 188 166 192 156 262 243 207 209 232 212 300 327 322 325 310 307 118 106 100 71 357 342 338 333 326 325 322
180 182 177 164 167 178 184 180 187 201 184 209 214 164 183 181 188 180 136 54 347 262 261 301 204 255 300 0 14 44 59 84 111 101 61 354 339 330 323 321 316 322 321 317
166 159 118 138 140 130 131 146 197 190 161 204 189 194 151 184 151 178 189 137 134 237 264 210 306 284 9 39 81 93 87 58 29 18 353 335 323 320 318 316 311 314 316 315
175 149 122 133 113 98 135 185 160 196 207 176 171 159 131 130 160 124 107 121 107 254 337 16 255 243 66 91 85 60 30 14 3 350 333 322 316 314 308 306 305 308 308 310
137 125 121 130 112 140 192 188 193 204 178 170 154 112 148 137 140 98 117 127 209 278 64 231 224 127 74 54 36 30 13 342 333 323 313 312 313 310 308 309 309 308 305 309
137 133 124 173 183 244 181 128 149 145 169 158 151 116 110 95 78 79 92 227 93 196 248 238 244 116 46 17 7 341 333 331 323 316 316 318 320 321 320 320 321 317 314 315
87 114 161 165 150 130 152 142 143 152 169 163 119 93 116 74 89 32 93 114 227 217 225 227 157 359 296 298 327 328 325 321 316 319 321 320 323 323 320 319 318 318 312 314
87 86 88 132 161 158 164 165 167 164 159 114 111 110 73 256 134 124 198 152 222 252 214 118 267 279 273 313 323 323 319 316 314 318 318 319 321 320 319 317 317 318 315 311
107 115 143 179 195 193 188 181 176 167 151 147 112 110 206 114 61 246 183 198 215 165 19 267 252 310 321 320 314 311 309 312 313 314 314 317 319 320 323 324 325 324 327 322